Location: Brivio
(45.7333°N, 9.4500°E)
Time: 17:16:31
(UTC+00:00)

USA 238 DEB - Pass Details

Date: 18 October 2019
Orbit: 1028 x 1184 km, 63.4° (Epoch: 07 November)

Event Time Altitude Azimuth Distance (km) Brightness Sun altitude
Rises 17:31:38 0° 185° (S) 3,767 6.7 -11.1°
Reaches altitude 10° 17:34:27 10° 176° (S) 2,827 5.9 -11.6°
Maximum altitude 17:40:19 34° 114° (ESE) 1,658 4.3 -12.7°
Drops below altitude 10° 17:46:20 10° 52° (NE) 2,913 5.5 -13.7°
Enters shadow 17:46:22 10° 52° (NE) 2,922 5.5 -13.7°
